Theta_e
314 313 313 313 314 318 318 320 320 323 326 323 325 323 320 322 327 323 323 330 327 336 345 343 341 342 345 348 350 350 347 350 351 346 348 350 345 345 345 342 338 333 330 328 329 332 334 335 333 331 329 327 325 321 315 312 313 316 316 316 317 320 323 327 331 333 333 333 333 333 333 332 332 332 332 333 333 334 334 333 330 327 326 322 318 316 313 310 311 315 322 327 326 327 330 329 330
313 313 313 312 314 317 321 323 324 325 324 321 323 325 320 322 325 319 328 341 338 342 347 344 344 346 347 345 346 348 349 349 349 349 350 347 344 346 344 341 335 332 329 325 326 329 334 335 334 332 329 326 324 321 315 312 313 315 317 316 317 320 323 326 330 333 333 333 333 333 333 332 332 333 333 333 333 333 332 330 326 319 314 311 309 309 308 308 307 308 312 318 325 329 330 330 330
313 313 312 313 314 316 321 322 325 325 321 320 322 325 322 321 322 319 335 345 342 346 346 343 345 347 348 351 352 351 351 348 349 350 350 347 345 346 346 342 335 333 330 325 324 327 333 334 334 331 329 327 324 321 315 312 313 315 316 317 318 320 323 326 330 333 333 333 332 333 332 332 332 332 332 331 331 330 328 324 317 310 308 308 308 308 308 307 307 307 307 314 325 329 330 331 330
312 312 311 314 317 319 324 325 329 326 320 321 320 323 323 322 322 320 335 345 343 345 344 345 348 347 349 358 354 350 350 348 349 350 349 347 345 347 349 345 338 335 331 326 324 326 332 333 333 331 330 327 324 321 315 312 313 315 316 317 318 319 323 326 329 332 333 332 332 332 332 331 331 330 329 328 326 324 320 315 310 308 308 309 308 308 308 307 307 307 306 315 325 328 330 330 329
312 312 312 316 321 322 324 324 328 324 318 323 318 321 325 323 323 320 333 344 343 343 344 347 350 349 349 353 349 349 350 348 349 349 349 348 347 349 350 347 341 336 331 328 325 326 331 332 333 332 331 328 324 319 314 313 313 314 316 317 318 319 323 326 329 331 332 332 331 331 331 330 329 329 326 323 321 317 313 309 309 309 309 309 309 308 308 308 308 307 307 314 323 327 329 329 329
311 311 313 318 320 319 321 320 323 321 320 323 318 321 325 323 322 321 332 339 340 344 346 346 348 351 350 350 349 349 349 348 349 349 349 350 349 349 349 347 342 338 333 329 327 327 331 332 333 333 331 328 323 318 314 313 313 314 316 317 318 319 322 326 328 330 331 331 330 330 329 328 326 325 323 320 317 313 309 309 309 309 309 309 309 308 308 308 308 307 307 313 322 326 327 329 330
311 311 315 320 320 318 322 323 322 322 321 321 320 321 322 320 317 320 335 343 344 345 347 348 349 352 352 351 349 349 349 348 348 349 350 350 350 349 347 345 343 339 333 329 328 329 332 332 333 333 331 329 323 318 315 313 312 313 315 317 317 319 322 325 328 330 331 331 330 329 328 326 324 322 320 318 314 311 309 309 309 309 310 310 309 309 308 308 308 308 308 314 321 324 326 329 329
311 314 316 320 323 319 321 321 319 321 321 319 319 319 319 320 317 317 326 339 349 347 349 349 348 353 353 350 350 349 349 348 348 349 350 349 349 348 346 345 343 338 332 330 330 331 332 332 333 333 332 330 325 320 317 314 312 312 314 317 318 319 321 325 327 329 331 330 329 328 327 325 322 319 318 315 311 309 309 310 310 310 310 310 310 309 309 308 308 307 309 314 320 323 326 328 328
311 316 317 320 322 320 319 319 317 317 318 317 317 317 318 318 319 318 318 334 347 346 350 349 347 353 352 348 348 349 349 348 348 348 348 348 348 346 345 344 341 336 331 331 331 332 331 332 333 333 333 332 328 323 318 315 313 312 314 316 318 319 320 323 325 328 329 329 328 327 326 324 321 317 315 312 310 309 310 310 310 310 311 311 311 310 309 308 308 308 309 314 319 324 327 328 328
313 317 318 319 319 319 319 320 320 319 318 316 316 316 317 317 317 317 318 336 347 347 350 348 347 351 351 348 347 349 349 348 347 348 348 348 347 346 344 341 339 335 331 331 332 331 331 333 333 334 334 333 331 325 320 317 313 311 313 315 317 319 320 321 322 325 327 328 328 327 327 324 321 317 315 313 311 310 310 310 310 311 311 311 311 311 310 309 309 308 310 315 320 325 327 327 327
315 317 316 318 318 318 319 320 320 320 319 317 317 316 318 318 317 315 315 334 347 350 350 347 349 349 349 349 347 348 348 348 348 348 348 347 346 345 342 339 337 334 331 331 331 332 331 332 333 333 333 333 332 327 322 318 313 311 312 314 316 318 319 319 320 321 323 325 326 326 326 324 321 318 316 314 312 311 310 311 310 311 311 311 311 311 311 310 309 310 313 318 323 327 328 328 329
317 318 318 320 319 319 320 321 319 319 319 317 317 317 319 318 318 315 317 337 348 349 349 347 350 349 349 349 347 347 347 348 348 348 346 345 344 342 341 337 335 333 331 330 331 331 330 330 331 332 333 333 332 328 323 316 312 311 312 313 314 316 318 318 318 319 320 322 323 324 323 322 320 318 316 315 313 312 311 311 311 311 311 311 311 311 312 311 310 311 317 322 327 329 329 330 330
319 317 318 319 319 319 319 318 319 320 319 318 317 317 319 316 318 316 320 342 349 349 349 346 348 347 348 348 346 346 347 347 347 347 345 343 340 339 338 336 334 332 331 330 330 329 328 328 329 331 332 332 330 327 321 315 311 310 312 312 313 315 316 317 317 318 320 320 321 321 322 322 321 320 318 316 314 313 312 312 311 311 311 311 311 311 311 311 311 313 319 325 328 329 330 330 331
319 317 318 319 317 318 317 317 318 318 318 316 316 316 318 317 316 316 327 347 349 347 347 346 347 348 349 349 347 346 346 347 346 346 344 342 339 338 337 335 333 332 331 330 329 328 327 327 327 328 329 329 328 325 319 313 310 310 312 312 313 314 315 316 316 317 318 319 319 320 321 323 323 322 321 319 316 314 313 312 312 311 311 311 311 312 311 311 311 314 319 324 326 327 329 330 330
318 317 317 318 317 317 316 317 317 316 317 317 315 315 328 331 320 317 331 346 348 345 346 348 346 348 350 349 348 347 346 346 346 346 344 342 341 341 341 339 336 333 331 330 328 328 326 326 325 324 324 325 325 322 317 311 310 310 311 313 313 313 314 314 315 316 316 317 317 318 319 321 322 322 322 321 318 316 314 313 313 312 312 312 311 311 311 311 311 313 318 322 323 325 328 329 330
317 315 315 315 316 317 316 316 316 316 316 317 316 317 338 346 331 330 337 342 347 348 347 348 346 346 348 348 348 347 347 347 346 345 344 343 343 343 343 343 340 335 332 330 329 328 326 325 323 321 320 321 322 320 315 310 310 310 310 312 312 312 313 313 314 314 315 315 315 316 317 318 319 320 322 322 320 318 316 314 313 313 313 312 312 311 311 310 310 312 316 320 322 324 328 328 329
317 315 314 314 315 316 316 317 317 317 318 318 315 318 341 351 344 344 345 343 348 348 348 348 346 345 346 348 348 347 347 347 346 345 344 344 343 343 343 344 341 335 332 331 330 328 325 324 322 321 320 320 321 318 314 311 310 310 310 311 311 311 311 312 313 313 314 314 314 315 316 316 317 318 319 320 320 319 317 316 315 314 313 313 313 312 312 311 310 311 314 319 321 324 327 327 329
318 317 315 315 314 314 316 319 316 316 318 317 314 316 335 350 348 347 348 348 349 348 349 348 348 348 347 349 347 347 348 346 346 345 344 344 343 344 344 345 341 334 332 332 330 328 325 322 321 321 320 319 319 317 314 311 310 310 310 310 310 310 311 311 312 312 313 313 314 314 315 315 316 316 316 317 318 318 318 317 317 316 315 314 314 313 313 311 310 310 312 317 321 323 325 327 330
318 317 315 315 314 313 315 317 315 315 316 315 316 313 325 345 347 346 350 350 349 351 351 349 350 350 349 349 347 348 347 346 346 345 345 344 344 344 344 345 344 335 331 332 331 328 325 321 321 320 320 319 317 315 313 312 311 310 310 310 310 310 310 310 311 312 312 312 313 313 314 314 314 314 314 315 315 316 316 316 317 317 317 317 316 315 315 313 312 311 311 314 318 322 324 328 331
317 316 316 315 313 314 313 315 315 315 315 314 316 314 323 342 346 346 350 350 349 351 352 350 352 351 349 348 348 348 347 347 346 346 345 344 344 345 344 345 345 339 332 332 332 329 325 321 320 320 319 318 315 314 313 313 312 311 311 310 310 310 310 310 310 311 311 311 312 312 313 312 313 313 313 313 313 314 314 315 315 316 317 318 318 318 317 316 315 313 312 313 314 318 323 328 331
316 316 318 316 313 314 314 315 315 315 316 315 315 316 321 333 344 347 348 351 352 350 350 349 350 350 349 348 348 348 347 347 346 346 345 345 345 345 345 345 345 342 333 332 332 329 325 322 320 319 318 316 315 314 314 314 314 313 312 312 312 311 311 311 311 311 311 311 311 311 311 312 312 312 313 314 314 315 314 314 314 315 315 316 317 318 319 318 317 316 314 314 314 315 321 327 330
315 315 315 315 314 314 315 315 316 316 316 315 316 318 320 330 345 348 346 350 351 349 349 348 347 349 347 348 348 347 348 347 346 346 346 346 346 345 345 344 344 341 334 333 333 330 326 323 321 319 317 315 314 314 314 314 314 314 314 313 313 313 312 312 312 312 312 313 314 315 314 314 314 316 319 321 321 321 321 321 321 321 320 320 318 317 318 319 319 319 318 316 315 315 319 326 329
316 316 313 314 314 314 315 315 316 315 315 315 317 317 322 338 348 345 343 345 347 348 350 350 349 348 346 347 348 348 348 348 347 347 347 346 345 345 343 342 341 338 334 333 333 331 327 324 322 320 317 315 315 315 315 315 315 314 314 313 313 313 314 314 315 316 317 320 323 326 324 322 323 325 328 329 329 328 329 329 329 328 328 328 326 322 319 318 319 320 320 320 319 318 319 324 327
316 317 314 315 315 313 314 315 316 315 315 315 316 318 325 339 347 344 346 347 348 350 351 351 351 349 347 348 348 349 348 348 348 348 347 346 345 344 342 339 337 336 335 334 334 332 329 326 323 322 319 317 318 318 318 317 316 316 315 316 317 319 321 323 325 327 328 330 332 334 332 331 331 332 332 332 331 331 331 331 331 330 330 331 332 329 323 319 319 320 321 322 322 322 320 323 325
315 315 314 315 315 315 316 316 315 315 316 314 317 327 334 341 344 345 349 350 350 351 351 351 351 350 348 349 349 349 349 349 349 348 348 346 345 344 341 338 337 336 335 334 334 333 331 328 324 323 322 321 322 322 321 318 317 319 321 323 325 328 331 332 333 334 334 335 335 335 334 334 334 334 333 333 332 332 331 331 331 331 331 332 333 332 329 323 321 320 321 323 324 324 322 322 323
315 315 314 314 314 315 315 315 315 315 315 316 327 340 343 344 345 348 350 351 351 350 351 351 350 350 349 349 348 348 349 350 348 347 346 346 345 343 341 340 338 337 336 335 335 334 333 331 327 325 327 328 328 327 323 319 320 325 329 330 331 333 334 333 333 334 335 335 335 335 335 335 335 335 335 335 334 334 333 333 333 332 332 333 333 333 333 331 326 323 321 322 323 324 325 323 323
314 314 313 313 314 314 314 315 314 316 314 316 336 348 345 341 346 350 350 351 351 350 350 350 350 350 351 350 348 348 348 348 348 347 345 346 346 344 343 341 340 339 338 338 337 336 335 334 331 330 333 334 333 331 324 321 325 330 333 333 334 334 333 333 334 334 334 335 335 335 335 335 335 336 335 336 335 335 335 334 333 333 333 333 334 334 335 334 332 329 324 322 322 323 325 325 325
312 312 312 312 312 312 313 314 314 317 314 318 336 342 336 337 348 351 350 350 350 351 350 350 351 351 351 350 349 348 346 345 347 346 346 346 346 345 344 342 341 340 340 340 339 338 337 336 336 335 336 336 336 335 330 328 331 333 334 335 335 334 334 334 335 335 335 335 335 335 336 336 336 336 336 336 335 335 335 335 334 334 334 334 334 334 335 335 335 333 330 327 324 322 322 323 325
311 312 313 314 314 314 313 312 315 316 315 321 329 327 323 334 349 349 348 351 350 350 351 350 351 351 351 350 348 346 343 344 347 346 346 345 345 344 344 343 342 341 341 340 340 340 339 337 338 337 336 337 337 336 334 334 334 334 335 335 335 335 335 335 335 336 335 335 336 336 336 336 336 336 336 335 335 335 334 334 334 334 334 334 334 334 335 335 335 335 333 332 330 327 323 321 322
312 312 312 314 314 316 315 312 314 315 316 318 319 319 317 327 344 349 348 350 350 350 350 350 351 350 350 349 347 344 343 345 347 346 346 345 344 344 344 344 343 342 342 341 341 340 339 339 338 338 337 337 337 336 335 335 335 335 336 336 336 336 336 336 336 337 337 337 337 336 336 336 335 335 335 335 335 334 334 334 334 334 334 334 334 334 334 335 335 335 334 334 333 332 328 324 324
313 312 313 315 313 318 318 312 314 315 316 316 316 319 316 327 344 349 348 349 348 348 349 350 349 349 349 348 346 344 344 346 347 347 346 345 344 344 344 344 344 343 342 341 340 340 340 339 338 338 338 338 337 336 336 335 335 336 337 337 337 337 337 337 337 337 337 337 336 336 335 335 335 335 335 335 335 335 334 334 333 333 333 333 334 333 333 334 334 335 335 334 333 332 332 329 328
316 312 316 316 311 319 321 313 314 316 317 315 316 318 316 332 348 347 347 349 347 347 349 349 348 348 347 346 345 345 346 347 347 346 345 345 344 344 344 344 344 344 342 341 341 341 340 340 339 339 338 338 337 337 336 336 337 338 338 338 338 338 338 337 337 337 336 336 335 335 335 335 334 334 334 334 334 334 333 333 332 332 332 332 333 332 332 332 333 334 334 333 332 332 332 332 331
321 314 317 319 312 316 318 313 314 314 317 315 315 318 318 333 346 345 348 348 347 348 348 348 347 347 346 344 344 346 348 347 347 346 345 345 344 344 344 343 344 343 342 342 341 341 340 340 339 339 339 338 338 337 337 337 338 338 338 338 338 338 337 337 337 336 336 335 335 335 335 335 335 334 334 334 334 333 333 333 332 332 332 332 332 332 332 331 332 333 334 333 333 333 333 332 332
320 314 314 318 314 315 315 315 313 311 317 316 316 317 319 333 344 345 347 344 347 349 347 347 346 345 345 344 345 346 347 346 346 345 344 344 343 343 342 342 342 342 342 342 341 341 340 340 339 339 338 338 338 338 338 338 338 338 338 338 338 337 337 336 336 336 335 335 334 335 335 335 335 334 334 333 333 333 333 333 332 332 332 332 332 332 331 331 332 332 333 333 333 334 333 332 332
317 315 315 317 314 313 315 317 315 312 315 316 317 315 318 336 345 343 341 337 342 348 347 346 345 344 344 344 346 346 346 345 345 344 343 343 342 341 340 340 341 341 341 342 341 341 340 339 339 338 338 338 338 339 339 339 339 339 338 338 338 337 337 336 336 335 335 334 335 335 335 334 334 334 333 333 333 332 333 332 332 332 331 332 332 332 331 331 331 331 332 332 332 333 333 333 333
316 317 319 318 313 312 315 316 316 314 315 316 317 315 321 339 346 342 340 335 339 346 346 345 344 343 343 343 345 345 345 344 344 343 342 342 341 340 339 339 340 340 341 341 341 341 340 339 339 338 338 339 339 339 339 339 338 338 338 338 338 337 337 336 335 335 334 334 335 334 334 334 334 334 333 333 332 332 331 330 330 331 331 331 331 331 331 331 331 331 331 331 331 331 331 332 332
314 314 315 315 312 313 314 315 315 313 314 317 317 317 325 340 344 342 342 337 337 341 342 344 343 342 342 342 343 343 343 343 343 342 341 341 341 339 339 338 338 339 340 341 341 340 339 340 339 339 339 339 339 339 338 337 337 337 338 338 337 337 336 335 335 334 334 334 334 334 334 335 334 333 333 332 332 331 330 328 328 329 331 331 331 330 331 331 331 330 330 330 330 330 330 330 331
312 312 313 312 312 313 313 313 314 312 314 317 316 317 324 338 344 343 341 336 333 335 340 343 342 342 342 341 341 341 342 343 341 340 341 341 341 339 338 337 337 337 339 340 339 338 339 340 340 340 340 339 339 338 337 337 337 338 337 337 337 335 334 333 333 333 334 334 333 332 332 332 332 332 332 332 332 331 330 327 325 326 329 331 331 330 329 329 330 330 330 330 330 330 330 330 331
312 313 312 313 313 313 313 316 315 312 315 318 317 314 318 332 342 342 341 337 334 336 341 343 343 342 342 341 340 340 341 342 341 341 342 341 340 339 337 337 335 334 336 338 337 335 337 339 340 340 339 338 337 336 336 336 336 336 335 335 333 332 331 331 332 331 332 332 331 330 331 332 332 332 333 333 332 332 332 330 327 327 329 330 331 331 330 330 329 329 329 329 329 330 330 330 330
314 314 313 313 314 312 315 319 316 313 315 317 319 316 314 327 340 342 340 338 338 340 340 340 342 342 342 341 340 340 341 341 341 341 341 340 340 338 337 337 335 333 335 336 335 334 335 336 337 338 338 337 336 335 335 333 333 333 332 332 331 330 330 330 330 330 330 331 330 331 333 334 333 333 333 333 332 332 332 332 331 331 331 331 331 331 331 331 331 330 330 330 329 329 330 330 330
314 314 313 312 312 312 314 317 316 317 319 317 317 315 314 326 339 341 336 335 338 340 336 336 342 342 341 341 339 340 341 340 341 341 340 339 339 338 337 337 335 334 336 336 335 334 335 334 333 335 336 336 335 334 333 332 332 332 331 330 330 329 330 330 330 330 330 329 329 330 332 333 333 332 332 332 332 332 332 332 332 332 332 332 332 332 332 331 331 331 331 331 331 330 330 330 330
313 315 313 311 312 312 313 314 315 318 319 318 316 313 315 325 337 339 334 335 338 336 335 337 342 342 341 341 339 339 340 340 341 340 339 339 338 338 338 337 336 334 335 335 334 333 334 334 331 333 335 336 335 335 334 333 333 332 331 331 330 330 331 332 332 331 330 329 328 328 329 330 330 330 331 331 331 330 329 329 330 330 330 331 331 331 331 331 331 331 331 332 332 331 331 330 330
313 314 312 311 312 312 313 312 313 316 318 319 315 314 318 321 330 337 335 337 337 333 337 341 341 341 340 339 338 338 338 338 338 338 338 337 338 338 338 336 334 331 331 331 332 332 333 334 332 334 336 336 336 335 334 334 334 333 333 333 333 332 333 334 334 333 332 330 329 328 327 327 328 328 329 330 329 327 326 326 327 328 329 329 329 329 329 330 331 331 331 332 332 332 332 331 330
313 314 312 311 312 312 313 311 313 317 318 320 317 315 320 321 327 335 336 339 338 334 340 342 340 341 340 339 339 338 337 337 337 338 338 337 338 338 337 336 330 327 329 329 329 331 332 333 332 334 337 337 336 336 335 336 336 335 335 335 335 334 333 333 333 332 331 330 330 330 328 327 327 328 327 327 325 325 325 326 327 328 328 327 326 326 326 327 328 330 331 331 332 332 332 332 331
314 314 314 314 313 313 314 312 313 317 316 319 321 316 316 319 328 337 338 341 343 340 342 342 340 341 340 340 339 337 337 338 338 338 338 338 339 339 337 335 332 329 330 329 328 330 331 330 331 335 338 337 336 336 336 336 336 335 335 335 334 333 332 332 331 331 331 330 329 328 327 327 327 326 325 325 325 326 327 327 327 326 325 324 323 323 323 323 325 327 329 331 331 331 332 331 331
312 313 314 315 314 314 314 313 314 316 315 318 319 316 314 319 331 340 340 341 345 343 342 341 340 340 340 340 339 338 338 338 339 339 338 338 339 339 337 335 335 333 332 330 329 332 333 331 333 336 338 337 337 336 336 336 335 335 334 334 333 332 332 332 332 332 331 329 328 326 326 326 326 325 325 326 327 327 327 325 324 323 322 322 322 322 322 323 324 324 326 328 330 330 331 331 331
310 312 312 311 317 318 317 320 319 315 317 320 318 317 316 321 332 339 339 340 342 341 342 341 339 339 339 339 339 338 339 339 340 340 338 339 339 338 338 337 336 335 334 333 332 333 334 333 335 337 337 336 336 335 335 335 334 334 334 333 332 332 332 331 331 330 329 328 327 326 326 326 325 326 327 328 327 326 325 323 322 322 322 322 322 322 322 323 325 326 325 326 327 329 330 330 330
309 312 312 311 319 319 314 319 319 314 319 323 320 317 314 320 331 337 338 338 338 338 341 340 339 338 338 339 339 338 340 341 340 339 338 337 337 337 337 337 337 336 336 335 335 334 335 336 337 337 336 335 335 335 335 334 333 333 333 332 332 331 331 330 329 328 327 327 328 328 327 325 325 326 327 327 326 324 323 322 322 322 322 323 323 323 322 323 326 327 327 326 326 327 328 329 330
309 312 313 313 317 315 313 317 318 318 321 320 318 316 313 320 329 334 338 338 336 336 338 338 338 337 337 338 339 340 340 340 339 338 336 335 335 335 336 336 336 336 336 335 335 335 335 336 336 336 336 335 334 334 333 333 332 332 331 331 331 331 330 330 329 328 328 329 329 328 326 325 325 326 326 325 324 323 323 322 322 322 322 322 323 323 323 324 326 328 327 326 326 326 328 329 330
309 310 312 314 316 314 315 318 318 320 319 317 318 315 314 326 331 334 338 337 334 334 335 336 336 336 337 337 339 340 339 339 338 337 336 335 334 333 333 334 334 335 335 334 334 335 335 335 335 335 334 334 333 333 332 332 331 331 330 330 329 328 329 329 329 329 328 328 328 327 325 325 325 326 325 325 324 323 322 322 322 322 322 323 323 324 324 325 327 328 328 327 327 327 328 329 329
309 310 312 315 320 319 317 319 319 318 318 317 320 319 321 334 337 334 334 332 333 335 334 335 336 335 337 337 337 338 337 337 336 336 336 336 335 333 332 333 334 335 335 334 334 334 334 334 334 334 333 333 333 332 331 331 331 330 328 328 326 326 326 327 327 327 327 327 326 325 325 325 326 326 325 325 323 323 323 322 322 322 323 324 324 324 325 325 326 327 327 328 328 328 328 328 328
310 312 313 312 319 321 318 321 323 325 323 319 325 330 331 335 336 332 333 333 333 335 334 335 335 335 336 336 335 335 335 335 335 336 336 335 335 334 333 333 334 335 334 333 333 334 333 333 333 332 332 332 332 331 331 330 329 326 325 324 324 324 324 324 324 324 325 325 323 323 325 326 326 325 325 324 323 323 323 322 322 323 324 324 325 326 326 326 327 327 326 327 327 327 328 328 329
311 311 312 311 315 321 319 317 320 325 324 319 326 336 336 335 336 335 335 336 336 334 334 334 334 334 334 333 333 333 333 332 334 336 334 333 334 334 333 333 333 333 332 332 332 332 333 332 331 331 330 330 330 330 329 327 325 323 322 322 322 322 322 322 323 323 323 322 322 324 326 326 326 325 324 324 323 323 323 322 322 323 324 325 326 327 327 327 327 327 326 326 326 327 328 329 329
313 310 312 313 312 319 324 323 321 323 325 325 329 338 340 338 337 336 337 338 337 335 334 334 333 333 332 331 331 332 331 330 332 333 331 331 333 332 332 332 332 331 330 330 330 330 331 330 329 329 328 328 328 327 325 323 322 321 321 322 322 322 322 322 322 323 322 322 322 324 326 326 325 324 323 324 323 323 322 323 323 323 323 324 326 326 326 327 327 327 327 327 327 328 328 328 329
313 311 312 315 315 318 322 321 320 320 324 329 334 336 337 338 337 338 340 339 338 336 334 334 332 331 330 329 329 330 330 329 329 329 329 329 330 330 330 330 329 328 328 328 329 329 329 328 327 326 326 326 325 323 322 321 321 322 322 322 322 322 322 322 322 322 322 322 323 324 325 325 325 323 323 324 323 323 323 324 324 324 323 323 324 325 326 326 327 327 327 326 325 327 328 328 329
312 312 310 314 319 321 317 317 320 323 325 329 334 334 334 336 336 337 339 337 337 336 334 333 331 329 329 328 328 328 328 327 326 327 327 327 327 328 327 327 326 326 325 326 327 327 325 324 323 323 323 322 321 320 321 321 321 322 322 322 322 322 322 322 322 322 323 322 323 324 325 325 325 324 324 325 324 324 324 324 324 324 324 323 324 326 327 326 326 326 326 325 323 325 325 326 326
311 312 312 312 314 316 316 316 318 323 329 330 333 334 335 336 335 335 336 335 334 334 333 331 329 328 327 327 326 326 325 325 325 326 326 325 325 325 324 324 324 324 324 324 324 323 322 321 321 321 320 320 320 320 320 320 320 321 321 321 321 322 322 322 322 322 322 322 322 323 324 325 324 324 325 325 325 324 324 324 325 324 324 324 325 326 327 326 326 326 327 326 325 325 324 323 323
313 314 315 315 315 316 317 316 315 323 333 333 333 337 337 334 332 333 334 333 332 331 330 329 327 327 326 325 325 325 324 325 325 325 324 324 323 323 322 322 322 322 322 322 322 321 321 320 320 319 319 320 319 318 318 318 319 320 321 321 321 321 321 321 322 321 321 322 322 323 324 324 323 323 324 325 325 325 325 325 325 325 324 325 326 326 326 325 325 326 326 326 326 327 326 324 322
Wind_Speed
10 7 5 6 4 2 2 1 1 2 2 2 2 2 4 4 3 4 6 7 4 5 5 8 10 12 9 7 9 9 7 3 3 3 4 12 27 34 30 28 29 30 29 29 29 27 25 23 21 20 19 17 16 16 17 17 17 17 18 18 18 19 19 19 19 18 17 17 16 15 15 14 13 13 13 12 12 12 11 10 9 8 7 6 6 6 6 6 8 9 10 11 15 19 18 18 17
10 6 5 7 5 2 1 2 1 2 3 1 3 3 4 2 4 4 3 4 1 5 14 21 20 16 10 10 8 5 9 10 3 8 13 25 34 32 29 28 29 29 28 28 28 28 26 23 21 20 19 18 17 17 17 18 17 17 17 18 18 19 19 19 18 18 17 17 16 16 15 14 13 12 12 11 11 10 9 9 8 7 6 6 6 6 6 6 7 9 10 13 18 20 18 17 16
10 7 6 6 5 2 1 2 1 2 3 4 4 5 3 2 8 4 3 4 10 13 13 16 16 11 6 6 6 4 5 8 10 17 20 30 36 33 30 28 29 27 25 26 28 28 27 24 22 21 20 19 17 17 17 18 17 17 17 17 18 19 19 19 18 17 16 16 16 15 14 13 12 12 11 11 10 9 8 8 8 8 8 8 8 7 7 6 7 9 12 16 20 20 18 16 15
9 6 5 5 3 1 3 2 2 4 4 4 3 5 3 4 10 3 7 13 16 9 5 7 9 8 7 7 6 8 5 5 12 20 24 30 34 33 30 27 29 27 25 26 27 28 27 25 23 22 20 19 17 17 18 18 17 17 17 18 18 18 18 18 18 17 16 16 15 15 14 13 12 12 11 11 10 9 8 9 9 9 9 9 9 8 7 7 9 11 15 20 21 20 18 15 14
8 5 4 3 3 1 2 1 2 4 5 4 2 6 4 8 9 1 7 15 14 5 1 2 4 7 12 9 3 5 8 10 14 21 28 31 31 31 29 28 29 26 26 26 27 28 27 26 23 22 20 18 17 17 18 18 17 17 17 18 18 18 18 18 18 17 16 15 15 14 13 13 12 11 11 10 10 10 10 10 10 10 11 11 10 9 8 9 11 13 17 21 20 19 18 16 13
6 4 3 3 2 1 2 2 2 3 5 6 4 6 5 9 6 5 6 11 8 4 3 4 6 11 11 9 7 10 10 13 19 24 30 31 29 28 29 29 28 25 26 26 27 28 27 26 24 22 20 18 17 17 19 18 17 17 17 17 17 18 18 18 18 17 16 15 14 13 13 12 11 11 11 11 11 11 11 10 10 11 11 11 10 9 9 10 12 14 16 19 19 19 18 16 13
4 3 2 3 1 1 3 3 4 4 5 6 5 7 5 8 4 7 4 4 2 1 5 8 16 16 7 6 9 8 6 13 23 25 27 29 27 26 28 29 27 25 26 27 27 27 27 26 23 21 20 18 17 17 18 18 17 16 17 17 17 17 18 18 17 16 15 14 14 13 12 11 11 11 11 11 11 11 10 10 11 11 11 11 10 9 10 11 12 13 16 18 18 18 17 15 13
4 2 2 3 0 1 2 2 4 4 4 4 6 9 5 10 11 2 2 2 1 3 10 13 13 9 4 5 7 6 9 16 21 23 25 26 26 26 27 26 25 26 27 27 28 28 27 25 23 21 19 18 17 16 17 17 16 16 16 17 17 17 17 17 17 16 15 14 13 12 11 11 10 10 11 11 10 10 10 10 10 10 11 10 10 9 10 10 11 13 16 18 18 17 16 15 12
4 3 2 2 2 0 0 2 4 3 5 6 7 13 8 13 16 5 2 2 4 7 12 11 4 5 9 10 8 9 14 17 19 22 24 23 24 24 24 24 24 27 28 28 28 28 27 24 22 20 19 18 16 16 16 17 16 16 16 17 17 17 17 16 16 16 15 14 13 12 11 10 10 10 10 10 10 10 10 9 10 10 10 10 9 9 9 10 11 13 16 17 17 17 16 14 11
4 4 2 1 3 1 3 2 3 3 6 6 8 16 13 15 18 9 4 4 9 9 8 7 4 12 15 11 8 11 16 18 21 23 22 21 21 22 23 25 25 27 29 29 28 27 26 23 21 20 19 17 16 15 15 15 15 16 16 16 16 17 17 16 16 15 14 13 12 12 11 10 10 9 9 9 9 9 9 9 9 9 9 9 9 8 8 9 10 13 16 17 17 17 16 13 11
2 2 2 2 2 2 4 3 5 5 6 4 10 19 18 19 18 9 5 7 10 9 10 9 10 20 17 8 8 15 20 20 21 22 21 19 18 21 24 26 26 26 27 28 27 26 25 23 21 20 19 17 16 15 14 14 15 16 15 15 15 16 16 15 15 14 14 13 12 11 11 10 10 9 9 9 9 9 9 8 8 8 8 8 8 8 8 8 10 13 16 17 17 17 16 13 10
2 0 3 3 2 3 4 3 5 6 6 5 9 18 19 19 14 7 8 10 11 9 11 11 14 21 14 4 12 20 23 20 20 20 19 18 18 20 23 25 26 26 26 26 26 25 24 24 22 20 19 17 16 14 14 14 15 15 15 15 15 15 15 14 14 13 13 12 12 11 11 10 10 9 8 8 8 8 8 8 8 8 8 7 7 7 7 7 9 13 15 16 17 17 15 13 10
4 1 5 2 3 3 3 3 4 4 5 5 8 14 14 12 13 13 12 13 15 11 9 15 23 20 10 8 17 23 24 22 20 18 18 18 19 20 21 24 25 25 25 24 25 24 24 24 23 21 19 18 17 15 14 15 15 15 15 14 14 14 14 13 13 13 12 12 11 11 11 10 9 8 7 7 7 7 8 7 7 7 7 7 6 6 6 7 9 13 14 15 16 16 14 12 10
5 3 4 1 1 2 3 3 3 2 5 7 7 12 12 10 17 18 14 15 14 14 11 21 29 18 12 13 16 25 26 23 20 18 20 20 21 21 20 22 23 24 23 23 23 23 23 23 22 21 20 19 18 16 15 15 15 16 15 15 14 14 14 13 13 12 12 11 11 10 10 10 9 8 7 6 6 6 7 7 7 7 7 7 6 6 6 6 8 12 12 13 15 15 14 12 9
7 3 4 1 1 2 3 4 3 4 5 6 4 13 9 7 15 16 19 18 9 15 17 23 25 12 16 17 16 30 28 25 23 20 22 21 22 21 19 20 20 23 22 23 22 21 21 21 21 21 21 20 18 16 15 15 15 16 16 15 14 13 13 13 12 11 11 10 10 10 10 10 9 8 7 6 6 6 6 7 7 7 7 6 6 6 6 6 7 10 12 13 14 14 13 11 9
7 2 3 1 2 3 4 3 4 4 5 4 8 17 7 4 5 12 20 24 14 18 18 21 19 5 23 25 20 35 30 27 25 22 24 22 22 21 19 18 19 22 22 22 20 20 20 20 21 20 20 19 18 16 15 15 16 16 16 15 14 13 13 12 12 11 11 10 9 9 8 8 8 7 7 7 6 6 6 6 6 7 7 6 7 6 6 6 7 9 12 13 14 14 12 11 10
5 2 2 1 4 4 4 4 4 4 5 5 11 17 6 4 8 13 17 26 25 20 12 14 13 7 25 23 23 37 31 30 27 25 26 23 24 22 20 18 19 23 23 21 19 19 19 19 19 19 19 18 17 16 16 16 16 17 16 16 15 14 13 12 12 11 10 9 8 8 8 7 7 7 7 7 7 6 6 6 6 6 7 7 7 7 7 7 7 9 12 14 15 14 12 12 11
5 2 2 3 5 5 4 6 4 3 5 7 11 13 4 3 8 19 17 18 22 18 10 13 10 12 24 21 29 38 31 31 28 27 27 25 25 23 22 20 19 23 24 22 19 18 18 18 18 18 18 18 18 17 16 16 17 17 17 16 15 14 13 12 12 10 9 8 8 8 8 8 8 8 8 8 7 7 7 6 6 6 6 7 7 7 7 7 7 9 11 14 15 14 13 13 12
7 3 2 5 4 5 5 7 5 5 6 9 15 16 4 5 6 16 12 10 17 16 12 18 19 19 22 26 36 36 32 32 27 28 27 25 25 23 24 21 20 23 24 23 19 18 17 17 17 17 18 17 17 16 16 16 16 17 16 16 14 13 12 11 10 9 8 7 7 7 8 8 8 7 7 7 7 7 7 7 6 6 7 7 8 8 8 8 8 9 11 14 16 15 15 15 14
10 5 3 6 5 6 11 13 12 13 11 8 13 17 5 7 5 9 10 9 10 11 15 19 24 26 29 35 38 34 33 31 28 29 27 26 25 22 23 22 21 22 24 23 20 19 17 17 17 17 17 16 16 15 15 15 15 15 15 14 12 12 10 9 8 7 7 6 6 6 6 7 7 6 5 5 6 7 8 8 8 7 7 8 8 8 8 8 8 9 11 13 14 15 16 16 15
7 8 4 5 5 6 14 16 17 19 14 9 10 12 6 6 6 11 17 12 2 8 24 29 31 36 39 41 38 35 35 31 31 29 26 26 24 22 21 21 20 21 25 23 21 20 18 18 17 17 16 16 16 15 15 15 15 14 13 12 10 10 8 8 7 6 6 5 5 5 5 5 5 5 5 5 5 6 7 7 8 8 8 8 9 9 9 9 9 10 11 12 13 15 17 18 17
3 5 5 7 7 6 13 15 16 17 12 10 6 6 5 4 9 18 17 8 7 16 28 35 41 43 44 44 39 37 35 33 32 28 27 26 23 22 19 20 20 21 25 23 22 20 19 18 17 16 16 16 16 15 15 14 14 12 11 10 8 8 7 6 6 5 5 5 4 4 5 5 5 5 6 6 6 6 6 6 6 7 7 8 9 10 11 10 11 11 11 12 13 14 16 18 17
4 5 5 11 13 9 15 19 19 16 8 7 5 5 3 4 9 15 6 2 10 20 23 30 39 42 44 44 40 39 36 34 31 28 27 24 22 22 20 21 21 22 25 23 22 20 19 18 17 17 16 16 16 15 15 13 13 11 9 8 7 6 5 5 5 5 4 3 3 3 4 5 5 6 6 6 7 8 7 7 6 6 7 8 9 10 12 12 12 12 13 13 13 14 16 18 17
6 4 4 12 17 14 20 25 24 20 14 14 11 7 2 8 8 7 1 3 12 19 22 30 34 37 40 39 38 38 36 33 30 28 25 22 21 21 20 20 21 23 24 23 21 19 18 17 16 16 16 15 14 14 13 12 11 10 9 8 7 6 4 4 3 3 3 3 4 5 5 6 6 6 7 7 8 9 9 9 9 7 7 7 9 9 11 13 14 14 14 14 15 15 16 18 18
6 5 7 11 15 17 24 27 26 26 21 15 9 2 3 10 10 5 5 11 17 23 29 33 32 32 35 35 35 35 34 32 30 27 24 22 21 20 21 21 21 22 22 22 21 18 17 16 16 15 15 14 13 12 11 11 11 10 9 8 7 5 4 3 3 3 3 5 6 6 5 6 6 7 8 9 10 10 10 11 11 10 8 8 9 10 10 12 14 15 15 16 16 17 18 18 19
6 10 12 10 13 19 22 23 24 26 17 3 4 4 8 15 13 7 6 16 21 27 33 35 34 32 31 31 32 33 32 30 28 26 23 22 22 21 21 21 20 20 20 20 18 18 16 15 15 14 14 12 11 11 10 11 10 9 8 7 6 4 3 3 3 4 4 5 6 6 6 7 8 9 10 11 12 12 13 13 13 13 12 11 11 11 11 11 12 15 17 17 18 18 19 19 20
4 9 12 12 17 21 17 16 22 21 12 4 9 6 10 12 7 4 8 19 25 30 33 34 34 31 30 30 29 27 25 23 24 24 22 22 21 20 20 21 20 20 19 18 17 17 16 15 15 14 13 12 12 11 10 11 9 7 6 6 5 4 5 5 5 5 5 5 6 7 8 8 9 10 11 12 13 14 15 15 15 14 14 14 13 13 13 13 13 14 16 18 20 21 21 21 22
8 7 7 11 14 16 13 12 17 14 6 8 15 8 5 4 3 8 15 22 27 31 33 32 31 29 29 29 26 24 22 22 22 23 22 21 20 18 19 20 20 20 19 17 17 18 17 16 15 15 14 13 13 12 11 11 9 7 6 5 5 6 6 6 6 6 6 6 7 8 9 10 10 11 12 13 14 15 16 16 16 16 16 15 16 16 15 15 15 15 16 17 19 21 23 23 23
11 7 4 8 6 7 10 10 14 10 2 11 19 6 2 2 4 17 22 24 26 28 30 29 27 27 27 28 27 25 24 25 24 22 20 19 18 17 18 18 18 18 17 17 17 17 17 16 15 15 15 14 13 12 11 11 9 7 6 6 6 6 6 5 6 6 7 7 8 8 9 10 11 11 12 13 13 13 14 15 15 16 16 16 17 18 18 18 18 18 17 16 17 19 22 24 24
9 4 1 4 6 5 7 8 11 9 7 10 15 3 5 4 6 22 25 26 27 24 24 24 24 24 26 28 27 26 26 25 24 22 20 19 18 17 16 16 16 16 16 17 17 17 16 15 15 14 14 14 13 12 11 10 9 7 6 6 6 6 5 5 5 6 7 7 8 8 9 10 11 11 12 12 13 13 13 14 14 15 15 16 17 19 20 20 20 20 19 18 18 19 21 23 23
4 2 1 1 0 5 7 4 7 6 10 9 10 3 5 4 10 24 27 30 31 25 22 22 23 24 25 28 27 26 27 25 23 23 22 20 19 17 16 16 16 15 15 17 17 15 15 15 14 13 13 13 13 11 10 9 7 6 5 5 5 5 5 5 5 6 7 7 8 9 9 10 10 11 12 12 13 14 14 14 14 15 15 16 17 18 19 20 21 21 20 20 20 20 21 22 23
2 0 3 3 3 5 8 3 8 9 6 2 6 3 3 4 13 23 27 30 29 26 23 22 24 26 28 29 28 29 28 26 25 24 22 20 19 18 17 17 16 15 15 16 15 14 14 14 13 12 11 11 11 10 9 8 7 6 5 5 5 5 5 5 6 7 8 8 9 10 10 10 10 11 12 13 14 14 14 14 14 15 16 16 16 16 17 19 20 20 21 22 22 22 22 23 24
3 1 2 2 3 3 5 4 6 8 3 2 2 4 3 4 13 23 27 28 27 24 21 22 27 29 30 30 31 31 29 28 26 24 21 20 19 18 17 17 16 15 14 14 15 14 13 13 12 11 11 9 9 9 9 8 7 6 5 6 6 6 6 7 8 8 8 9 9 9 9 10 10 11 12 13 13 13 13 13 13 14 14 15 16 15 16 16 18 19 21 22 23 24 25 25 26
3 1 2 3 3 3 1 4 5 2 3 1 0 3 3 6 14 21 24 23 21 21 23 26 28 28 30 31 31 31 30 29 26 24 21 20 19 18 17 16 16 15 15 15 14 14 13 13 12 11 10 9 9 9 8 7 6 6 7 7 7 6 6 7 7 7 8 9 9 8 9 10 10 11 12 12 12 13 13 14 13 13 13 15 16 16 15 14 16 18 20 22 23 25 26 28 27
3 3 2 3 2 2 2 4 4 2 3 3 3 1 2 8 14 19 25 23 17 19 26 29 28 29 31 31 32 30 29 28 25 23 21 20 19 18 17 16 16 16 17 17 15 14 13 12 11 11 11 10 10 9 8 8 7 7 7 6 6 6 6 6 6 7 9 10 9 9 10 11 10 10 11 11 12 13 14 14 14 14 14 15 16 16 15 14 15 16 19 21 23 25 26 27 26
7 5 4 3 2 3 4 5 4 2 4 3 6 4 4 11 12 15 24 26 21 19 24 27 26 29 31 31 32 31 29 27 25 23 22 21 20 19 18 17 16 16 16 17 16 14 13 12 12 12 11 10 10 10 9 8 7 6 6 5 5 6 6 7 8 9 11 11 11 11 11 10 11 11 12 13 13 14 14 14 14 14 15 15 16 16 16 16 16 17 19 20 22 24 26 26 25
6 4 3 3 3 4 4 4 5 2 2 3 5 7 8 12 12 14 21 21 14 12 15 22 26 28 31 31 31 30 28 27 25 24 23 22 22 20 19 18 17 17 16 16 15 14 13 12 12 11 10 10 9 9 7 6 5 5 5 5 6 7 8 9 10 11 12 12 12 12 12 12 12 13 14 15 15 16 15 15 15 15 15 16 16 16 16 17 18 18 20 20 21 22 24 25 25
4 4 3 3 2 5 5 4 5 1 2 3 4 8 8 12 13 13 17 16 10 14 16 20 25 27 29 30 30 29 27 28 27 25 24 24 22 21 20 19 18 16 16 16 14 13 12 11 10 9 9 8 7 6 4 4 5 5 6 6 7 8 9 10 11 12 13 13 12 13 15 15 14 15 15 16 16 17 17 17 17 17 17 17 17 17 16 17 18 18 20 21 22 22 23 23 23
3 3 3 2 3 4 5 4 5 1 3 3 3 7 6 11 12 12 17 17 21 29 27 25 28 27 28 29 29 29 29 30 29 27 26 24 23 22 20 19 17 15 15 14 13 12 12 11 8 7 7 7 5 4 4 4 5 6 7 8 9 10 12 13 13 13 13 14 14 14 16 16 15 16 16 17 17 17 17 18 19 19 20 19 19 19 19 19 18 18 19 21 22 24 24 23 23
4 4 3 3 4 1 2 4 6 2 2 2 4 5 3 7 8 10 15 16 20 27 23 19 23 23 25 29 29 30 31 32 30 28 27 25 23 21 20 19 16 15 14 13 11 10 11 11 9 6 5 6 5 4 5 5 6 7 8 9 10 11 12 13 13 12 13 14 15 14 15 16 16 16 17 18 18 18 18 19 20 21 22 22 23 23 23 22 21 20 20 21 22 24 25 25 24
3 5 6 4 4 3 3 3 6 5 3 1 6 5 0 5 8 8 5 4 10 17 16 16 19 17 21 27 28 29 31 32 31 29 28 26 24 22 20 19 16 16 15 13 12 11 11 10 8 5 4 5 4 5 5 5 5 7 8 9 9 10 10 10 10 10 11 13 14 15 16 17 18 18 18 19 20 20 20 20 21 21 22 22 24 25 25 25 25 24 23 23 24 25 25 26 26
3 5 9 7 5 4 3 4 5 6 5 2 5 4 3 4 10 11 6 5 7 10 12 17 19 19 23 26 26 27 28 28 28 30 30 27 25 24 21 19 18 16 15 13 12 11 10 8 8 6 3 4 4 4 4 3 4 6 6 7 8 8 8 7 8 10 11 13 15 16 17 18 19 20 21 21 22 23 23 22 22 22 22 22 23 24 25 25 26 26 26 27 27 26 26 26 27
3 5 8 8 7 4 3 3 2 1 4 4 3 5 2 4 7 10 10 10 8 6 8 14 18 22 27 27 24 26 26 24 26 29 29 28 27 25 23 21 20 17 16 14 12 10 9 8 9 7 5 5 5 5 5 5 5 6 6 7 8 8 8 8 10 13 14 16 18 19 19 19 20 21 23 23 23 24 24 22 22 21 22 22 22 23 24 24 25 25 27 28 29 28 27 28 29
4 4 7 9 7 5 5 4 3 3 4 5 1 5 4 2 6 6 10 14 11 9 9 11 19 24 27 27 25 25 25 24 26 27 27 27 26 25 24 24 21 19 18 16 14 12 10 9 10 9 9 9 8 7 7 7 7 8 8 8 8 9 10 12 14 16 18 19 20 21 21 21 21 22 22 22 22 22 22 22 22 23 24 24 24 25 25 25 25 25 25 26 28 29 29 30 31
5 4 8 8 8 7 6 5 5 2 1 6 4 3 4 3 4 2 8 13 13 14 13 12 19 25 26 26 25 24 24 24 26 26 26 25 24 24 25 25 24 22 20 18 16 14 12 12 12 11 12 10 8 8 8 8 9 10 9 9 9 11 13 15 18 19 20 21 20 19 20 20 20 20 19 20 20 20 20 22 23 24 26 27 28 28 27 27 26 26 25 25 26 28 29 30 31
5 5 4 2 4 3 4 4 4 1 1 6 6 4 4 3 2 4 8 12 13 12 12 13 18 23 24 24 26 26 24 25 25 25 25 24 23 23 24 24 25 23 21 19 17 16 14 13 13 12 12 11 9 9 9 9 10 10 10 11 12 14 16 18 19 20 19 18 17 17 17 18 18 17 17 17 18 19 20 22 23 24 26 28 28 29 28 28 27 27 27 26 26 26 28 29 31
3 4 1 1 2 3 2 1 2 2 2 8 8 7 6 2 3 6 7 9 14 12 9 10 12 18 23 25 28 28 26 27 26 25 26 25 24 23 23 24 23 22 21 20 19 17 14 13 13 13 12 11 9 9 9 9 10 12 13 14 15 17 17 18 19 19 18 16 16 16 17 17 17 16 16 16 17 19 21 22 23 25 26 27 28 28 28 28 27 27 27 27 28 27 27 28 30
3 3 3 1 3 4 4 3 2 2 5 8 6 6 7 5 5 6 5 5 13 14 12 14 14 18 25 27 29 30 27 28 28 26 26 27 25 24 23 22 21 22 22 20 18 16 14 13 12 12 12 11 11 11 11 12 13 14 15 16 17 17 17 18 18 17 16 16 16 17 17 18 17 16 15 16 17 19 21 22 23 25 26 27 28 29 29 28 26 25 26 27 27 26 26 27 28
5 3 4 3 1 1 2 3 1 3 6 6 3 3 4 4 4 6 8 6 12 15 14 19 22 24 27 27 28 30 28 29 30 29 29 30 29 27 25 23 21 21 20 18 17 16 15 14 12 12 13 13 14 14 14 15 15 16 16 17 18 18 18 18 17 16 16 17 17 17 18 18 16 15 15 16 18 19 21 22 23 24 26 26 27 28 27 26 23 23 26 25 25 25 24 24 25
8 6 5 5 3 3 4 3 1 3 4 3 2 2 3 3 2 3 5 6 11 12 11 17 21 24 27 26 27 30 29 30 32 32 32 31 31 31 29 28 26 22 19 18 18 17 17 16 15 14 15 16 16 15 16 16 16 17 18 19 18 18 18 18 17 17 17 17 17 17 17 17 15 15 16 17 18 19 20 21 22 23 24 25 26 25 24 22 20 20 21 21 21 22 21 21 22
6 5 6 5 4 5 4 4 3 3 4 2 3 0 2 2 1 2 3 3 11 15 15 19 21 23 25 24 27 30 30 31 31 32 32 30 29 29 29 28 27 24 21 18 16 16 16 16 16 16 16 15 14 15 16 16 17 18 19 18 17 16 16 16 16 16 15 15 15 15 14 13 13 15 16 17 17 18 19 19 20 21 23 24 24 23 22 21 20 19 18 18 19 19 18 19 21
4 4 6 4 6 5 1 3 6 4 2 1 2 1 2 2 1 2 3 9 15 20 22 24 22 23 25 24 26 29 29 30 30 29 29 29 28 27 26 26 25 23 23 21 19 17 15 15 14 14 14 13 15 17 18 18 18 16 14 13 13 13 13 12 11 11 11 12 12 11 10 11 13 15 15 15 16 17 17 18 19 20 22 23 23 21 19 19 19 18 17 18 18 17 16 18 19
2 4 6 5 5 6 3 1 1 3 3 1 1 1 1 1 2 3 8 11 12 15 20 22 20 22 24 22 24 27 27 27 29 29 28 27 27 25 24 23 22 22 21 20 19 17 16 15 15 15 15 16 17 19 19 17 14 11 9 8 8 9 8 8 8 8 9 10 10 8 9 11 12 13 14 14 15 16 16 17 18 18 20 21 20 18 17 17 16 15 15 17 17 16 16 17 17
5 5 6 3 3 3 3 2 2 4 2 2 1 2 2 2 1 2 10 12 11 12 15 17 17 20 21 19 22 26 25 25 27 29 28 26 25 24 22 20 19 18 16 14 13 11 12 13 14 14 15 16 17 16 14 11 8 6 6 5 5 6 6 7 8 9 9 10 8 7 8 10 10 12 13 13 14 15 15 16 17 18 18 18 18 18 17 17 15 14 14 14 13 13 14 15 15
5 6 7 5 4 2 1 3 2 2 1 2 1 2 2 2 2 5 11 12 12 13 13 12 13 17 19 20 23 26 25 25 26 27 26 24 23 21 19 17 15 13 11 9 8 9 11 13 13 13 13 13 12 10 8 6 5 6 6 5 5 5 5 6 7 8 8 8 8 7 7 9 9 11 13 13 13 15 16 16 17 17 17 17 17 17 17 16 16 15 13 12 12 11 12 13 13
4 6 6 3 3 4 3 2 3 4 3 1 2 2 3 2 4 8 13 12 11 13 13 10 12 18 22 23 25 27 26 25 25 26 24 22 21 18 15 14 12 9 7 6 8 11 11 9 8 8 7 7 6 6 6 5 5 5 5 5 5 5 5 4 4 6 8 8 8 7 7 8 9 10 11 12 13 15 16 16 16 17 17 16 17 16 16 16 16 16 13 13 13 13 14 14 12
4 6 5 3 2 2 2 1 2 5 5 3 3 2 4 3 4 8 13 13 12 15 14 11 15 21 23 24 27 27 27 26 25 25 23 20 18 16 13 11 9 7 6 6 8 10 9 7 5 4 4 5 6 7 7 7 6 4 3 3 3 3 3 2 3 6 8 8 7 6 6 8 9 9 9 11 13 15 16 16 16 16 16 16 17 16 16 16 16 15 14 13 13 13 13 14 14
7 6 6 5 4 4 3 2 2 3 4 4 4 3 5 4 2 5 11 11 11 15 15 12 17 24 25 26 28 28 28 28 25 24 21 19 17 15 13 11 9 8 8 9 10 11 9 7 5 4 4 5 5 5 4 3 2 2 2 2 1 1 1 2 4 6 7 6 6 6 7 8 9 9 9 11 13 14 15 16 15 15 15 16 17 16 16 16 16 16 15 14 14 14 13 12 12
Wind_Direction
249 244 244 250 272 333 339 68 44 336 77 136 243 286 259 215 254 286 319 324 318 340 64 101 106 115 115 109 128 118 63 37 185 160 165 148 153 161 162 164 165 168 167 164 165 163 164 163 159 154 150 149 147 144 136 129 126 125 125 126 130 135 138 140 141 140 140 138 137 135 133 133 131 130 128 126 126 126 128 127 125 127 130 136 143 145 140 140 144 143 139 130 124 125 122 119 119
249 244 248 248 260 301 276 98 96 318 83 170 255 242 257 283 279 278 348 333 105 87 86 91 90 87 92 99 105 110 46 30 112 128 125 144 154 161 162 165 167 170 170 168 168 165 164 165 161 156 154 153 150 146 139 133 130 128 127 129 132 137 141 142 144 143 141 138 136 135 133 133 130 129 126 125 127 127 127 123 119 119 117 118 118 119 121 127 133 135 137 134 134 133 127 124 123
247 244 250 249 257 262 169 67 127 150 144 205 252 250 261 288 259 260 104 136 128 112 80 76 75 65 81 93 59 73 61 48 113 123 129 151 158 162 165 168 170 173 174 172 171 168 165 165 163 159 158 156 151 149 143 137 134 132 131 133 136 140 143 144 146 145 141 138 136 135 134 131 129 127 125 124 123 122 120 118 114 108 103 101 99 99 105 113 121 127 132 138 143 139 132 130 123
246 248 252 241 223 176 99 75 155 150 184 202 243 251 216 231 255 262 148 152 140 129 31 56 68 49 73 95 77 75 92 107 127 130 139 158 162 162 165 170 173 175 176 176 173 169 166 166 165 162 161 157 152 151 146 140 137 137 136 137 140 142 145 146 147 147 143 139 137 135 134 130 129 125 125 124 122 119 115 114 109 105 101 96 91 90 97 106 116 124 134 145 149 141 135 130 119
249 255 252 214 170 137 108 108 132 156 200 187 212 245 201 221 245 244 167 172 170 183 335 121 94 74 80 77 83 101 129 141 141 143 148 161 164 162 167 173 176 177 178 178 175 170 168 168 166 164 162 157 154 153 149 143 142 143 142 141 142 145 146 148 149 148 144 141 138 136 135 132 130 129 127 126 123 120 115 110 104 101 97 93 88 87 97 106 115 127 141 150 149 140 134 126 118
252 253 237 181 155 118 132 164 185 193 219 181 197 250 207 221 219 103 169 195 199 196 188 201 137 115 89 64 88 118 132 145 151 151 152 159 162 163 169 173 176 179 180 177 175 172 170 169 168 165 162 159 156 154 152 147 147 148 146 145 145 147 148 149 150 149 147 143 140 138 138 135 133 132 130 128 126 121 116 111 105 101 97 93 92 91 97 106 117 131 144 149 145 138 132 126 121
240 240 208 159 146 69 135 191 206 215 239 187 204 246 208 244 247 94 125 201 229 142 154 154 126 112 91 93 101 112 141 149 150 151 152 155 159 164 168 172 176 178 179 177 175 173 171 171 168 165 163 160 158 156 156 153 152 152 150 148 147 149 149 150 151 151 149 145 142 141 140 138 137 135 133 131 128 123 118 114 110 105 99 96 96 97 98 105 118 131 142 145 142 138 134 128 124
216 206 131 128 29 26 129 209 227 212 241 221 237 250 229 270 284 38 110 194 236 125 141 146 127 96 83 123 101 122 155 150 149 150 150 152 160 165 169 173 176 178 177 175 173 173 173 171 167 165 163 161 160 159 160 160 157 155 154 152 151 150 150 151 152 152 151 149 146 145 144 142 138 136 135 133 130 125 120 117 114 108 102 99 100 101 98 105 118 130 141 144 143 139 134 130 128
192 171 121 111 157 337 251 254 258 228 249 253 254 259 258 269 280 284 138 187 183 145 159 175 163 102 107 100 98 141 153 154 152 147 147 151 160 164 169 174 177 178 175 173 173 174 173 169 167 165 164 164 163 164 165 164 161 158 158 157 154 151 151 151 153 154 153 152 150 149 147 142 139 136 136 135 132 127 123 121 116 111 105 102 103 104 101 104 118 132 141 144 143 140 136 135 138
178 166 144 107 139 226 263 270 258 239 251 252 259 262 266 268 273 258 181 165 166 150 173 190 136 120 116 101 109 152 155 158 155 146 147 152 159 164 171 177 181 181 175 173 173 173 170 166 166 165 166 166 167 169 169 168 164 163 161 159 155 153 153 152 152 153 154 155 154 153 149 144 141 140 140 138 134 130 127 125 121 117 109 105 105 107 106 108 121 135 141 143 142 140 140 144 149
171 164 122 106 121 211 228 254 251 258 269 278 274 264 265 261 263 251 184 166 168 151 155 148 118 117 110 102 123 148 154 159 156 145 149 155 162 170 176 180 182 183 178 173 172 171 167 164 165 167 168 169 171 173 172 170 168 167 163 158 157 156 154 153 151 152 155 156 156 155 152 147 146 146 146 144 140 136 133 132 129 125 117 111 109 108 109 112 128 139 143 144 143 143 147 153 156
168 171 88 110 172 197 207 234 247 275 285 282 270 268 266 250 252 242 170 166 172 164 166 152 138 128 104 98 140 151 157 158 153 146 151 157 165 173 178 180 180 182 178 173 170 169 167 165 166 168 169 171 175 176 175 172 171 169 163 159 158 157 155 155 154 155 157 159 160 157 153 150 148 150 152 153 147 144 141 141 139 135 130 122 116 114 110 113 134 145 147 147 146 149 153 157 161
177 147 101 132 199 179 193 216 258 294 290 262 243 268 268 232 235 230 180 161 167 171 193 165 146 130 105 135 150 158 163 159 152 150 153 155 160 166 173 176 177 177 174 172 171 170 169 168 168 169 171 174 178 178 177 173 172 170 165 163 159 157 157 161 163 161 163 163 164 160 157 154 152 156 159 159 156 154 151 150 151 146 143 136 130 125 119 116 138 152 153 154 153 155 157 158 167
189 162 127 185 217 171 196 220 273 272 274 259 246 279 273 243 244 230 170 156 175 176 176 158 146 122 118 138 157 171 168 161 156 157 157 155 155 154 159 165 171 173 171 172 172 173 172 171 170 171 175 178 181 180 177 173 172 172 169 168 162 159 161 167 170 167 170 170 169 166 164 162 164 167 167 171 170 167 164 164 163 159 156 151 146 141 137 127 141 158 161 163 162 160 159 161 173
195 174 118 136 286 274 218 211 224 199 268 254 310 319 299 278 244 210 165 166 180 168 154 150 151 128 153 159 174 179 169 163 163 164 163 159 154 148 151 155 165 171 172 173 173 175 174 174 174 176 179 180 182 181 176 172 172 175 175 174 167 165 168 171 171 172 176 176 176 171 169 169 172 176 176 186 189 185 180 177 175 172 172 167 164 161 158 149 149 164 170 172 171 165 162 167 178
193 187 79 109 239 246 215 209 199 199 274 250 345 344 341 1 182 172 169 166 142 151 149 154 169 157 171 173 174 174 167 166 169 169 169 163 158 154 154 153 160 168 171 173 173 176 177 178 179 179 181 180 182 180 176 173 174 178 180 180 173 173 178 177 175 178 180 180 180 175 172 170 172 177 180 193 202 205 200 191 187 185 188 187 181 179 176 172 165 171 177 178 178 173 171 176 183
184 171 81 263 224 216 215 205 185 202 278 284 346 357 347 357 93 119 147 152 141 152 150 161 193 195 174 177 166 166 166 169 172 173 173 167 164 162 161 157 158 165 170 173 173 176 179 181 182 181 180 180 182 180 177 176 178 181 182 184 181 182 183 182 184 186 186 185 186 181 175 174 177 181 182 195 207 215 219 211 201 198 200 203 201 196 191 188 182 180 184 185 186 183 181 182 185
179 124 156 232 229 219 206 199 208 228 294 314 329 350 319 278 96 117 124 129 132 136 125 138 161 161 168 170 161 164 167 170 174 177 176 171 169 167 166 164 160 164 169 172 173 178 182 184 182 181 180 181 181 180 179 180 183 184 185 188 187 187 186 187 191 192 193 194 195 190 183 186 193 192 189 195 207 217 226 227 217 214 214 215 216 213 205 199 196 192 191 192 192 192 190 186 188
184 118 176 225 223 222 228 231 269 283 293 320 314 326 311 215 128 129 127 121 129 117 110 123 123 137 156 160 162 166 168 170 177 181 179 174 174 172 170 170 166 168 172 172 173 178 185 185 183 181 181 182 181 180 182 184 187 188 189 191 191 191 191 192 194 196 198 201 205 206 202 205 210 208 204 203 211 222 232 237 232 228 226 228 228 227 221 210 207 202 198 198 199 199 196 190 190
193 181 214 240 225 245 266 261 270 278 287 314 307 322 334 191 163 137 133 125 134 127 135 133 130 143 154 159 163 167 168 172 178 183 182 176 178 179 176 174 172 174 175 174 173 177 184 185 183 182 183 182 181 182 184 185 190 192 192 192 194 195 197 197 195 197 197 202 210 217 219 220 227 227 228 224 225 231 239 246 245 242 236 236 238 237 233 223 216 212 208 204 205 206 202 195 191
192 193 202 234 224 248 267 266 270 276 285 296 295 330 353 203 180 142 132 119 106 173 161 156 153 155 158 162 165 166 170 174 179 186 184 178 180 183 184 181 177 178 178 175 174 178 183 184 184 181 181 182 182 185 184 186 190 193 193 192 195 196 198 196 194 200 203 216 224 233 238 240 249 257 272 267 258 246 244 249 252 257 252 246 244 242 240 233 225 219 217 211 211 210 205 200 193
204 220 208 231 243 252 269 274 277 278 289 295 294 347 338 224 168 153 144 138 191 185 171 164 162 161 160 163 165 167 171 175 180 187 187 183 182 184 189 186 180 180 179 177 177 180 183 183 183 181 180 182 183 185 186 189 191 192 193 193 196 195 195 193 195 207 213 225 236 254 258 262 270 281 293 289 283 269 255 250 251 262 267 265 258 249 244 237 231 225 222 217 214 212 206 202 195
229 266 228 242 249 247 269 272 271 277 291 285 285 317 292 143 151 169 176 323 177 172 168 161 160 161 160 161 164 168 173 177 182 188 189 187 181 180 184 184 180 178 178 179 179 182 184 182 182 182 181 183 183 184 187 190 189 189 189 190 192 191 193 195 200 213 215 227 249 262 257 257 263 268 277 282 283 279 272 262 258 266 270 274 273 264 254 244 236 228 224 221 217 214 208 203 199
222 265 253 259 259 253 268 271 271 273 271 271 277 296 235 146 150 178 48 69 155 156 153 154 155 158 159 160 164 169 172 177 183 188 190 186 179 177 178 179 179 177 178 180 182 183 184 183 182 182 181 183 184 184 188 189 187 184 181 181 181 181 186 197 210 227 233 248 255 253 249 249 256 266 270 271 271 272 276 276 279 280 272 271 274 273 264 254 245 236 228 224 221 218 214 211 210
224 245 258 264 266 264 270 273 272 270 270 273 266 255 137 137 129 97 85 126 146 147 147 151 153 156 158 160 165 169 172 176 183 186 188 184 177 177 178 179 179 178 179 179 183 184 184 184 181 182 181 182 184 186 191 188 183 179 178 179 178 179 187 208 229 244 250 250 254 257 258 258 263 274 277 276 273 271 275 280 285 287 281 274 270 271 270 261 253 246 238 229 225 223 222 222 221
211 224 248 261 268 268 270 272 269 267 268 239 128 119 121 124 112 73 108 137 143 145 147 151 154 155 158 163 168 170 171 174 181 183 182 181 177 179 180 180 180 178 177 180 184 184 185 185 181 180 178 179 183 186 193 188 182 182 182 185 187 192 200 223 236 235 245 249 256 261 265 268 269 274 277 279 280 279 278 278 281 284 282 278 274 270 267 265 259 253 248 239 233 229 228 229 228
244 236 254 260 264 267 265 268 269 269 273 176 143 147 144 130 109 95 137 144 146 144 147 153 155 157 160 164 168 170 169 169 179 181 179 181 180 182 182 180 181 177 176 179 182 184 186 186 183 181 178 180 182 186 190 189 190 190 191 194 197 204 208 220 230 236 253 264 269 269 271 273 272 275 277 280 281 281 280 279 279 280 280 279 277 273 267 265 261 255 253 248 242 237 234 233 235
313 303 293 272 265 269 258 255 263 266 288 166 149 141 149 110 100 146 146 149 149 144 148 156 156 158 160 161 167 168 164 167 180 184 180 181 181 183 184 181 179 177 178 179 179 182 185 186 186 184 182 182 182 184 189 192 196 194 194 200 205 211 211 219 232 248 265 272 275 275 278 278 278 279 279 280 279 278 277 276 276 276 278 278 277 276 271 268 264 257 252 251 250 245 242 239 240
320 327 324 292 312 290 245 230 243 246 295 147 135 97 337 8 127 146 146 149 148 144 149 156 157 158 158 163 169 166 163 171 180 185 183 181 182 185 185 181 178 177 179 181 181 181 183 186 185 184 183 183 184 187 192 195 195 195 197 202 211 218 220 228 238 258 269 272 274 275 282 283 284 284 281 281 280 280 279 277 277 276 279 279 278 277 275 273 269 263 254 250 253 252 249 245 243
314 324 185 295 352 316 247 220 227 231 258 182 140 100 286 292 152 148 149 150 148 147 150 154 156 157 159 167 171 165 167 176 178 183 186 183 183 187 185 181 178 178 179 181 183 181 182 184 183 185 185 184 187 191 197 198 197 202 205 207 217 226 232 240 245 260 269 273 278 281 286 287 288 289 287 287 285 288 288 285 284 282 282 279 277 275 273 273 272 270 264 256 253 251 251 248 244
318 316 294 319 345 275 281 239 192 204 256 215 138 141 249 242 159 152 156 155 151 152 154 155 155 155 161 168 171 170 172 177 179 184 186 183 182 183 183 181 178 180 180 179 179 180 182 184 185 187 187 188 191 195 201 203 208 213 214 222 234 244 254 262 267 274 279 282 283 285 286 284 286 289 291 292 291 293 293 293 293 291 288 281 277 275 273 271 270 272 271 263 256 251 248 246 243
14 350 311 330 176 258 301 276 178 178 244 241 116 148 214 179 163 160 160 158 153 152 156 157 155 156 161 167 172 174 175 177 182 185 183 181 179 178 179 180 179 179 178 176 177 180 183 186 187 188 190 193 192 195 203 209 218 221 227 246 254 263 272 281 284 284 286 284 283 283 283 285 289 292 294 294 293 294 295 296 297 296 292 287 282 279 275 272 270 271 270 267 265 260 253 248 244
2 114 244 269 199 249 314 290 220 185 181 346 88 145 175 170 166 166 163 161 156 152 154 154 155 161 164 167 171 173 175 179 183 183 179 177 175 175 175 177 178 175 173 175 176 178 182 184 185 189 193 193 191 193 201 209 219 225 237 249 254 264 271 277 279 279 282 280 281 284 287 294 298 299 298 295 294 293 292 294 296 296 293 291 289 285 280 275 270 269 269 269 268 266 262 258 253
326 332 221 247 205 198 279 275 263 198 140 260 69 132 174 170 163 167 167 165 159 151 152 155 158 163 166 168 171 172 175 178 179 178 174 173 172 171 171 171 172 170 169 174 177 176 179 182 183 189 192 194 197 196 202 212 219 229 242 250 256 266 270 273 274 276 282 281 284 293 301 304 302 300 298 296 296 294 295 298 300 300 295 292 292 291 288 281 273 270 270 271 270 268 266 264 259
198 200 196 264 233 212 246 246 241 148 122 152 159 125 148 160 161 165 168 171 176 162 155 159 162 163 167 169 171 173 176 175 174 174 170 168 168 167 166 166 165 165 166 169 173 174 176 180 182 186 189 195 201 199 205 212 218 229 240 254 262 270 277 280 283 286 289 290 295 303 307 306 303 301 301 302 303 303 304 305 306 304 301 297 294 293 293 289 283 278 276 276 275 273 272 271 267
176 180 158 183 212 249 242 253 263 152 121 156 167 157 148 164 164 165 170 174 182 172 156 158 162 163 167 169 172 175 176 173 172 172 167 164 164 161 160 159 158 161 164 166 169 173 174 177 182 186 189 195 200 200 202 206 217 231 246 263 267 275 288 295 299 298 298 302 308 310 307 308 308 307 309 309 308 308 307 306 306 305 303 299 296 295 296 294 290 286 284 283 282 280 279 280 280
162 148 161 192 196 263 255 259 294 65 119 231 178 145 156 169 170 172 168 163 171 175 159 159 162 165 169 170 173 174 173 172 171 170 166 162 162 159 156 157 157 161 165 166 169 171 170 176 185 187 189 194 197 200 204 213 230 245 257 269 273 284 295 299 300 299 300 305 311 310 305 304 306 307 310 310 308 308 306 304 303 302 301 298 294 293 292 292 291 289 289 288 286 285 283 282 283
163 153 200 262 209 246 257 250 290 43 143 259 151 131 163 177 175 173 157 146 167 187 180 170 166 168 172 172 171 171 172 171 170 169 166 163 162 160 160 160 163 167 166 165 167 171 172 177 185 186 191 199 202 206 219 239 254 263 267 274 285 296 302 302 301 298 296 299 305 305 301 300 301 303 307 307 305 303 300 299 298 297 297 295 292 289 285 285 286 287 287 287 286 285 284 283 281
168 146 155 274 244 261 282 282 319 67 153 267 167 138 182 191 176 170 163 164 179 184 183 176 168 170 175 174 171 170 171 169 170 170 166 164 163 163 163 164 168 170 163 160 163 170 176 179 183 190 200 206 213 224 236 255 268 276 282 288 296 303 306 305 304 298 289 287 293 297 299 302 303 303 304 302 299 295 291 290 291 293 295 295 293 290 287 283 279 280 282 283 284 282 281 279 275
169 143 153 243 238 249 284 294 339 355 185 227 151 120 181 195 175 178 174 174 180 177 176 170 166 173 176 174 172 172 171 169 170 170 166 166 166 164 165 167 168 162 156 155 155 162 171 170 168 185 213 216 226 242 249 268 283 293 299 298 302 306 306 306 304 300 292 286 285 287 292 299 301 301 299 297 295 293 291 289 288 291 293 295 294 292 290 287 283 280 280 280 280 280 281 279 276
207 174 191 221 207 194 226 286 336 338 331 120 108 77 135 180 174 186 155 128 170 161 155 166 172 176 174 173 175 174 172 170 170 169 167 167 166 164 166 168 162 157 157 156 152 155 158 156 152 163 214 227 236 251 256 277 291 298 299 295 297 299 298 301 302 298 293 289 284 280 285 290 294 295 294 294 295 296 297 297 296 296 297 297 296 294 291 289 286 283 281 281 280 280 281 280 279
244 221 209 196 169 194 264 330 357 4 331 293 118 106 274 225 183 180 139 113 167 156 156 174 172 165 168 176 180 176 173 174 174 170 166 166 167 166 167 167 161 159 160 156 153 154 151 154 156 156 195 228 228 237 236 250 266 274 280 282 282 282 285 294 298 293 288 288 286 282 280 281 286 290 292 296 299 302 304 304 304 303 304 304 302 299 295 291 288 285 282 281 279 278 278 278 277
236 242 203 171 149 180 260 306 13 51 271 274 149 157 245 281 206 183 158 149 161 173 175 172 159 157 169 180 181 176 176 176 174 170 167 168 169 167 168 168 163 162 161 160 162 160 154 159 160 157 186 210 200 199 210 222 241 256 260 261 263 264 270 278 285 287 285 285 285 282 280 280 283 287 292 298 302 306 308 309 310 309 307 305 302 299 295 292 288 285 282 280 278 275 276 276 273
224 221 153 151 161 196 229 228 208 219 264 304 293 153 125 222 223 197 161 150 151 172 181 164 155 159 173 182 180 177 178 175 172 172 172 172 171 170 170 167 164 163 163 165 172 171 167 168 167 175 198 208 202 204 216 226 238 251 252 253 260 268 276 281 283 287 288 287 285 285 287 288 290 292 296 300 303 306 307 309 310 309 307 305 302 298 295 291 286 283 282 280 278 274 273 275 274
222 172 128 152 174 193 212 215 225 235 302 297 289 137 128 246 252 170 157 158 158 169 174 165 162 167 174 179 180 178 175 171 169 174 176 175 174 175 173 169 166 166 165 168 176 178 180 182 183 193 208 213 215 221 231 239 247 256 262 267 274 281 285 287 288 291 292 290 287 288 291 293 297 300 301 302 303 305 307 308 307 306 305 304 304 302 300 296 289 284 280 278 278 274 271 272 273
208 150 106 119 141 171 199 195 211 114 122 254 256 168 157 260 255 162 170 173 169 171 173 166 166 171 172 171 173 174 170 167 169 175 177 176 179 180 177 172 169 168 166 168 178 183 185 188 192 202 213 217 223 233 242 251 261 270 277 281 283 285 285 284 283 283 283 283 285 288 291 295 300 302 303 303 305 306 307 307 307 305 305 304 305 305 305 303 297 288 281 276 275 274 272 269 268
156 121 121 329 18 25 26 115 126 105 236 252 238 192 172 227 228 187 184 182 174 168 162 162 165 170 168 166 168 168 166 166 169 173 172 174 179 179 174 171 167 165 166 171 179 185 188 189 192 203 213 220 230 241 250 259 268 273 276 280 280 280 280 279 276 274 275 280 287 293 298 303 304 302 303 304 305 307 308 310 310 309 308 308 308 308 308 307 302 293 287 281 275 273 272 271 266
136 111 137 196 314 354 3 352 69 153 247 262 237 184 170 197 222 200 203 197 178 172 165 166 171 171 167 164 165 165 164 165 168 169 165 167 170 171 172 171 167 167 170 175 180 182 184 186 190 202 213 226 237 242 248 256 263 268 272 275 275 275 275 275 275 277 282 289 293 297 303 305 303 300 302 304 306 310 313 314 314 313 312 310 309 309 309 308 306 299 292 286 281 278 276 275 273
156 160 132 139 258 286 253 259 205 210 241 264 243 161 169 218 243 204 194 189 186 186 180 175 172 166 163 160 161 164 163 163 164 162 159 157 157 160 164 162 161 166 171 176 180 179 182 188 195 208 221 231 236 239 246 254 261 267 270 271 271 271 271 272 276 280 284 287 291 296 301 304 304 304 306 310 313 317 319 320 319 317 315 313 311 309 307 308 308 304 296 287 283 280 278 279 280
170 176 161 163 163 162 215 231 238 249 240 284 295 207 209 259 300 214 210 207 186 176 173 174 166 156 156 157 158 161 161 159 157 156 156 155 152 153 154 152 150 154 160 166 171 177 185 194 205 218 227 228 229 237 247 254 261 267 268 267 267 268 267 268 272 276 280 283 289 297 302 306 309 312 314 317 320 322 323 324 324 324 322 320 317 313 310 310 310 306 300 293 286 281 279 285 287
172 157 137 161 172 161 203 207 184 234 236 314 340 251 194 202 310 282 247 177 141 130 134 150 151 149 154 154 153 154 155 156 154 152 155 156 156 156 154 153 152 154 163 173 179 186 189 192 201 211 218 224 230 241 249 256 264 266 265 263 265 266 266 268 273 278 282 286 293 299 303 308 312 314 318 322 324 325 326 327 328 331 330 328 327 322 316 314 312 308 303 297 293 288 286 290 291
184 134 128 185 194 152 106 186 175 185 198 333 350 297 208 179 354 350 138 123 112 114 125 136 141 146 149 148 147 148 150 153 153 153 154 155 158 159 156 155 156 161 169 176 184 191 194 198 208 218 226 235 242 249 255 261 265 265 263 262 263 264 266 270 275 278 284 291 295 299 305 311 314 318 323 325 326 328 329 330 333 336 336 336 338 335 327 322 318 312 305 299 295 294 294 292 290
167 146 170 199 168 132 102 201 143 93 137 278 326 236 253 154 31 56 123 123 113 118 128 135 138 141 143 143 142 144 146 148 152 155 155 154 157 159 157 157 158 161 162 165 172 182 194 210 227 237 242 246 248 254 259 260 259 257 256 252 253 260 264 266 269 273 284 295 299 299 303 310 317 324 328 329 329 331 333 334 338 340 341 344 348 349 346 341 333 325 322 317 308 299 295 293 293
141 183 192 158 123 116 107 159 11 56 143 286 338 168 187 171 230 129 133 134 135 137 137 139 139 139 140 139 139 142 145 143 146 152 153 153 158 158 156 159 161 161 163 166 171 185 205 221 230 232 238 244 248 253 254 252 247 236 229 231 242 255 260 268 280 288 296 303 305 303 303 312 324 331 332 332 332 335 338 339 342 344 346 350 352 354 355 354 350 344 340 337 328 311 298 296 296
144 177 175 142 162 208 104 158 177 116 160 289 359 178 202 200 209 162 151 151 148 145 144 142 142 141 137 135 137 140 143 142 141 147 149 149 153 154 153 158 162 164 172 179 196 228 234 231 230 229 233 239 241 243 242 238 219 200 202 216 239 257 268 278 294 308 312 311 312 312 313 318 327 333 335 336 337 341 344 346 348 349 350 352 353 355 357 359 360 357 353 351 350 341 325 316 312
94 143 167 153 156 177 164 162 160 137 156 204 151 192 242 237 210 177 166 163 152 146 148 146 141 140 138 138 138 138 141 141 138 141 144 142 144 148 150 153 157 163 177 202 225 226 215 209 214 219 224 222 218 218 216 205 187 190 213 230 245 266 281 286 307 326 326 325 325 324 321 319 326 336 339 340 342 346 349 352 353 353 354 356 357 359 1 2 4 4 1 358 357 354 345 340 335
125 146 177 177 118 131 147 140 117 124 140 159 146 205 251 242 211 180 167 164 160 153 149 142 137 138 139 139 138 138 139 139 137 137 138 137 137 140 142 143 146 154 170 197 203 184 167 163 170 177 184 185 193 200 200 194 189 206 244 255 264 277 287 308 334 334 331 333 337 339 335 330 335 342 343 345 348 350 351 355 357 355 357 1 3 5 5 5 10 12 10 4 357 351 344 343 343
160 165 185 178 138 118 132 206 256 106 126 160 154 193 255 258 225 177 169 167 163 152 140 132 136 137 138 138 139 139 138 138 139 139 138 141 141 140 141 140 144 153 161 164 158 149 149 156 157 155 160 167 186 200 193 193 198 225 273 290 303 306 329 341 340 337 337 345 353 358 358 351 349 350 351 352 354 354 355 359 2 359 1 8 10 11 11 12 17 20 20 15 6 359 352 347 347